This is the latest recevied weather packets stored in our database for station/object VE1UHF-4. If no packets are shown the sender has not sent any weather packets the latest 10 day(s).
| Time | Temp. | Humidity | Pressure | Rain* | Wind** | Luminosity | Snow |
|---|---|---|---|---|---|---|---|
| 1777733169 | 14.44° C | 88% | 1006.8 hPa | 0 mm | - | - | - |
| 1777731368 | 13.33° C | 88% | 1006.4 hPa | 0 mm | - | - | - |
| 1777730468 | 12.78° C | 88% | 1006.5 hPa | 0 mm | - | - | - |
| 1777728667 | 11.67° C | 87% | 1006.1 hPa | 0 mm | - | - | - |
| 1777727767 | 11.11° C | 87% | 1006.1 hPa | 0 mm | - | - | - |
| 1777726865 | 11.11° C | 86% | 1006 hPa | 0 mm | - | - | - |
| 1777725965 | 10.56° C | 86% | 1005.7 hPa | 0 mm | - | - | - |
| 1777725064 | 10.56° C | 86% | 1005.7 hPa | 0 mm | - | - | - |
| 1777724164 | 10.56° C | 86% | 1005.6 hPa | 0 mm | - | - | - |
| 1777721462 | 10.56° C | 85% | 1004.6 hPa | 0 mm | - | - | - |
| 1777720562 | 10° C | 84% | 1004.7 hPa | 0 mm | - | - | - |
| 1777719661 | 10.56° C | 84% | 1004.7 hPa | 0 mm | - | - | - |
| 1777718761 | 10.56° C | 84% | 1004.4 hPa | 0 mm | - | - | - |
| 1777717860 | 10.56° C | 84% | 1004.2 hPa | 0 mm | - | - | - |
| 1777716959 | 10.56° C | 84% | 1004.1 hPa | 0 mm | - | - | - |
| 1777716059 | 10.56° C | 84% | 1004 hPa | 0 mm | - | - | - |
| 1777715158 | 10.56° C | 84% | 1003.6 hPa | 0 mm | - | - | - |
| 1777714258 | 10.56° C | 84% | 1003.5 hPa | 0 mm | - | - | - |
| 1777713357 | 10.56° C | 83% | 1003.3 hPa | 0 mm | - | - | - |
| 1777712457 | 10.56° C | 83% | 1003.1 hPa | 0 mm | - | - | - |
| 1777711556 | 11.11° C | 84% | 1002.7 hPa | 0 mm | - | - | - |
| 1777710656 | 11.11° C | 83% | 1002.6 hPa | 0 mm | - | - | - |
| 1777709755 | 11.11° C | 83% | 1002.5 hPa | 0 mm | - | - | - |
| 1777708855 | 11.11° C | 84% | 1002.5 hPa | 0 mm | - | - | - |
| 1777707954 | 11.67° C | 84% | 1002.3 hPa | 0 mm | - | - | - |
* Rain since midnight (hover to see other rain measurements)
** Current wind speed in m/s (hover to see current wind gust speed)